CW9259 Weather Reports


Display with metric or nautical units.
time (UTC)temp
F
wind
direction
speed
MPH
gust
MPH
rain 1hr
in
rain 24hr
in
rain mn
in
humidity
%
barometer
mb
20260904161608 90 327.0 255.0 0.00 0.00 0.00 53 1013.6
20260904160001 90 327.0 255.0 0.00 0.00 0.00 47 1013.6
20260904154600 91 327.0 255.0 0.00 0.00 0.00 44 1013.7
20260904153123 91 327.0 255.0 0.00 0.00 0.00 44 1013.8
20260904151600 91 327.0 255.0 0.00 0.00 0.00 43 1013.9
20260904150112 91 120 1.0 9.0 0.00 0.00 0.00 44 1014.1
20260904144619 92 121 4.0 8.0 0.00 0.00 0.00 45 1014.1
20260904143129 91 126 0.0 8.0 0.00 0.00 0.00 46 1014.1
20260904141603 91 135 4.0 10.0 0.00 0.00 0.00 45 1014.3
20260904140002 91 9 2.0 6.0 0.00 0.00 0.00 44 1014.4
20260904134606 91 88 4.0 10.0 0.00 0.00 0.00 45 1014.5
20260904133123 91 72 0.0 5.0 0.00 0.00 0.00 46 1014.5
20260904131559 90 98 3.0 10.0 0.00 0.00 0.00 45 1014.6
20260904130130 90 92 4.0 8.0 0.00 0.00 0.00 47 1014.7
20260904124606 89 136 3.0 9.0 0.00 0.00 0.00 45 1015.0
20260904123143 88 185 3.0 9.0 0.00 0.00 0.00 49 1015.1
20260904121555 89 98 3.0 10.0 0.00 0.00 0.00 47 1015.2
20260904120138 89 131 7.0 11.0 0.00 0.00 0.00 47 1015.4
20260904114556 88 92 5.0 10.0 0.00 0.00 0.00 49 1015.4
20260904113129 88 236 2.0 10.0 0.00 0.00 0.00 47 1015.6
20260904111608 88 157 1.0 9.0 0.00 0.00 0.00 49 1015.6
20260904110131 88 113 4.0 8.0 0.00 0.00 0.00 46 1015.8
20260904104655 87 71 4.0 9.0 0.00 0.00 0.00 48 1016.0
20260904103122 87 183 2.0 7.0 0.00 0.00 0.00 50 1016.2
20260904101559 86 74 2.0 9.0 0.00 0.00 0.00 51 1016.4
20260904100131 86 153 4.0 8.0 0.00 0.00 0.00 51 1016.5
20260904094609 85 117 3.0 8.0 0.00 0.00 0.00 52 1016.6
20260904093139 84 113 3.0 9.0 0.00 0.00 0.00 52 1016.8
20260904091556 83 130 2.0 8.0 0.00 0.00 0.00 56 1017.0
20260904090130 82 157 2.0 7.0 0.00 0.00 0.00 56 1017.0
20260904084556 81 117 1.0 6.0 0.00 0.00 0.00 55 1016.9
20260904083134 80 143 3.0 5.0 0.00 0.00 0.00 58 1016.9
20260904081633 80 165 3.0 7.0 0.00 0.00 0.00 58 1017.0
20260904080122 79 130 2.0 4.0 0.00 0.00 0.00 60 1016.8
20260904074608 77 71 1.0 3.0 0.00 0.00 0.00 63 1016.8
20260904073132 75 31 1.0 2.0 0.00 0.00 0.00 65 1016.8
20260904071559 73 29 0.0 2.0 0.00 0.00 0.00 66 1016.8
20260904070139 71 21 0.0 2.0 0.00 0.00 0.00 69 1016.8
20260904064555 70 21 0.0 3.0 0.00 0.00 0.00 68 1016.8
20260904063129 68 29 1.0 4.0 0.00 0.00 0.00 71 1016.8
20260904061603 66 355 1.0 4.0 0.00 0.00 0.00 74 1016.6
20260904060135 65 351 1.0 4.0 0.00 0.00 0.00 78 1016.7
20260904054556 63 337 2.0 5.0 0.00 0.00 0.00 80 1016.6
20260904053121 62 336 2.0 5.0 0.00 0.00 0.00 85 1016.5
20260904051557 61 325 2.0 3.0 0.00 0.00 0.00 87 1016.4
20260904050128 61 317 0.0 2.0 0.00 0.00 0.00 88 1016.4
20260904044557 61 317 0.0 3.0 0.00 0.00 0.00 86 1016.3
20260904043139 61 315 1.0 3.0 0.00 0.00 0.00 86 1016.3
20260904041559 61 320 1.0 3.0 0.00 0.00 0.00 86 1016.2
20260904040125 61 327 1.0 3.0 0.00 0.00 0.00 86 1016.2
20260904034556 61 327 0.0 2.0 0.00 0.00 0.00 86 1016.2
20260904033130 61 321 2.0 3.0 0.00 0.00 0.00 86 1016.1
20260904031557 62 316 1.0 3.0 0.00 0.00 0.00 86 1016.2
20260904030141 62 315 0.0 1.0 0.00 0.00 0.00 86 1016.2
20260904024558 61 322 1.0 3.0 0.00 0.00 0.00 85 1016.3
20260904023127 62 320 0.0 2.0 0.00 0.00 0.00 85 1016.3
20260904021601 62 321 2.0 3.0 0.00 0.00 0.00 84 1016.2
20260904020134 62 317 1.0 3.0 0.00 0.00 0.00 84 1016.3
20260904014641 62 321 1.0 3.0 0.00 0.00 0.00 84 1016.2
20260904013123 63 321 1.0 3.0 0.00 0.00 0.00 83 1016.3
20260904011556 63 322 1.0 4.0 0.00 0.00 0.00 82 1016.2
20260904010130 63 317 1.0 3.0 0.00 0.00 0.00 82 1016.1
20260904004602 63 319 1.0 3.0 0.00 0.00 0.00 81 1016.1
20260904003140 64 318 2.0 3.0 0.00 0.00 0.00 81 1016.2
20260904001600 64 323 1.0 3.0 0.00 0.00 0.00 81 1016.3
20260904000143 64 306 2.0 4.0 0.00 0.00 0.00 81 1016.3
20260903234556 64 279 0.0 4.0 0.00 0.00 0.00 82 1016.3
20260903233136 64 319 1.0 3.0 0.00 0.00 0.00 81 1016.4
20260903231612 64 315 0.0 3.0 0.00 0.00 0.00 81 1016.3
20260903230127 64 315 1.0 2.0 0.00 0.00 0.00 81 1016.3
20260903224559 65 315 1.0 2.0 0.00 0.00 0.00 80 1016.3
20260903223134 65 315 0.0 2.0 0.00 0.00 0.00 79 1016.3
20260903221556 66 321 2.0 4.0 0.00 0.00 0.00 77 1016.3
20260903220140 66 315 1.0 4.0 0.00 0.00 0.00 78 1016.2
20260903214601 65 322 2.0 5.0 0.00 0.00 0.00 78 1016.1
20260903213127 65 292 0.0 3.0 0.00 0.00 0.00 79 1016.1
20260903211556 66 306 1.0 3.0 0.00 0.00 0.00 79 1016.1
20260903210148 66 308 1.0 3.0 0.00 0.00 0.00 78 1016.1
20260903204557 66 308 1.0 2.0 0.00 0.00 0.00 78 1016.1
20260903203159 67 308 1.0 3.0 0.00 0.00 0.00 77 1016.1
20260903201559 67 297 0.0 2.0 0.00 0.00 0.00 78 1016.1
20260903200117 67 297 0.0 2.0 0.00 0.00 0.00 77 1016.0
20260903194557 68 297 0.0 2.0 0.00 0.00 0.00 76 1015.9
20260903193134 69 297 0.0 2.0 0.00 0.00 0.00 76 1015.7
20260903191555 69 297 1.0 2.0 0.00 0.00 0.00 74 1015.6
20260903190145 70 297 0.0 0.0 0.00 0.00 0.00 73 1015.6
20260903184556 72 300 0.0 2.0 0.00 0.00 0.00 71 1015.5
20260903183137 73 298 0.0 1.0 0.00 0.00 0.00 71 1015.3
20260903181559 74 298 0.0 3.0 0.00 0.00 0.00 69 1015.1
20260903180129 76 299 1.0 2.0 0.00 0.00 0.00 66 1015.0
20260903174557 78 298 0.0 3.0 0.00 0.00 0.00 64 1015.0
20260903173134 80 298 0.0 3.0 0.00 0.00 0.00 63 1014.9
20260903171558 83 144 0.0 2.0 0.00 0.00 0.00 60 1014.9
20260903170145 85 145 0.0 2.0 0.00 0.00 0.00 55 1014.7
20260903164600 86 147 0.0 2.0 0.00 0.00 0.00 53 1014.6
20260903163138 86 147 0.0 1.0 0.00 0.00 0.00 54 1014.6